Bayburt

Turkey     40˚15′09″N   40˚13′32″E
temp.,
°C
wind,
m/s
gust,
m/s
humid.,
%
clouds,
%
prec.,
mm/h
press.,
hPa
HPBL,
m
2 december, wed
wed200:00−1˚ene1193100 0.2 102321
03:00−1˚e1294100 0.3 102351
06:00−1˚e1191100 0.0 102438
09:00+1˚e1179100 0.0 102488
12:00+4˚e1266100 0.0 1023705
15:00+4˚ese0163100 0.0 1022784
18:00+1˚se118181 0.0 102322
21:00−1˚sse128680 0.0 102422
3 december, thu
thu300:00−2˚sse118727 0.0 102522
03:00−2˚se118814 0.0 102521
06:00−3˚se11880 0.0 102521
09:00se11740 0.0 102675
12:00+3˚ene11610 0.0 1024568
15:00+4˚ne11570 0.0 1022690
18:00−1˚e11800 0.0 102322
21:00−2˚se11840 0.0 102422
4 december, fri
fri400:00−3˚ese118545 0.0 102421
03:00−3˚ese118651 0.0 102321
06:00−4˚ese118649 0.0 102321
09:00ese116568 0.0 102470
12:00+3˚ne115284 0.0 1022539
15:00+4˚nne114965 0.0 1020507
18:00−2˚ene117581 0.0 102122
21:00−2˚e017757 0.0 102222
5 december, sat
sat500:00−3˚e117929 0.0 102222
03:00−4˚ene018218 0.0 102221
06:00−4˚ene00820 0.0 102221
09:00ene01590 0.0 102251
12:00+3˚nne11460 0.0 1020444
15:00+4˚nnw11440 0.0 1018506
18:00−2˚nnw01710 0.0 102022
21:00−3˚ne00710 0.0 102121
6 december, sun
sun600:00−3˚ne01780 0.0 102121
03:00−4˚ne01790 0.0 102121
06:00−5˚nne00790 0.0 102121
09:00−1˚ene00590 0.0 102231
12:00+2˚nw11450 0.0 1020443
15:00+3˚nw11410 0.0 1018544
18:00−3˚e00630 0.0 102022
21:00−3˚ene01650 0.0 102121